User: anonymous   Login
Location: Unspecified
(0.0000°N, 0.0000°E)
Time: 19:10:28
(UTC+00:00)
Language:

Mayak - Orbit

View from above orbital plane
View from above orbital plane
View from above satellite
View from above satellite

Ground track
Ground track

The orbit data is extracted from the following two-line orbital elements,

1 42830U 17042F   24115.54594177  .00041143  00000-0  21482-2 0  9998
2 42830  97.3830 313.9420 0009421 183.4338 176.6832 15.15749655369949
Epoch (UTC): 24 April 2024 13:06:09
Eccentricity: 0.0009421
inclination: 97.3830°
perigee height: 512 km
apogee height: 525 km
right ascension of ascending node: 313.9420°
argument of perigee: 183.4338°
revolutions per day: 15.15749655
mean anomaly at epoch: 176.6832°
orbit number at epoch: 36994

The dashed part of the orbit path shows where the satellite is in the earth's shadow,  

DLR